Location: ?ern� Novina
(50.6762°N, 14.8696°E)
Time: 02:04:54
(UTC+00:00)

OBJECT-B - Pass Details

Date: 03 March 2021
Orbit: 414 x 427 km, 97.0° (Epoch: 11 April)

Event Time Altitude Azimuth Distance (km) Brightness Sun altitude
Exits shadow 19:38:15 22° 277° (W) 995 3.3 -27.5°
Drops below altitude 10° 19:40:29 10° 320° (NW) 1,515 4.4 -27.8°
Sets 19:42:48 0° 336° (NNW) 2,383 5.3 -28.2°
